period_start,C,m1,H,J0,J1,J2,J3,J4,J5,JA,JB,JC,JD,JJ,JK,JN,#
2018-10-10 00:03:51,0.00,0.00,0.00,26.16,30.67,32.59,-0.05,-3.50,1012.33,2011.11,3582.99,3056.00,3517.04,0.00,0.00,0.00,0000 0000 0000 A000 020008
2018-10-10 00:08:53,0.00,0.00,0.00,26.17,30.67,32.58,-0.05,-3.50,1012.49,2011.18,3582.99,3056.01,3517.13,0.00,0.00,0.00,0000 0000 0000 A000 020008
2018-10-10 00:13:54,0.00,0.00,0.00,26.17,30.67,32.55,-0.05,-3.50,1012.40,2011.20,3582.99,3056.00,3517.19,0.00,0.00,0.00,0000 0000 0000 A000 020008
2018-10-10 00:18:55,0.00,0.00,0.00,26.17,30.67,32.62,-0.05,-3.50,1012.58,2011.39,3582.99,3056.02,3517.35,0.00,0.00,0.00,0000 0000 0000 A000 020008
2018-10-10 00:23:56,0.00,0.00,0.00,26.17,30.67,32.57,-0.05,-3.50,1012.46,2011.18,3582.99,3056.02,3517.21,0.00,0.00,0.00,0000 0000 0000 A000 020008
2018-10-10 00:28:57,0.00,0.00,0.00,26.19,30.68,32.61,-0.05,-3.50,1012.37,2011.13,3582.99,3056.00,3517.10,0.00,0.00,0.00,0000 0000 0000 A000 020008
2018-10-10 00:33:58,0.00,0.00,0.00,26.20,30.68,32.60,-0.05,-3.50,1012.44,2011.09,3582.99,3056.01,3517.13,0.00,0.00,0.00,0000 0000 0000 A000 020008
2018-10-10 00:38:59,0.00,0.00,0.00,26.20,30.69,32.63,-0.05,-3.50,1012.41,2011.13,3582.99,3056.01,3517.04,0.00,0.00,0.00,0000 0000 0000 A000 020008
2018-10-10 00:44:01,0.00,0.00,0.00,26.20,30.70,32.59,-0.05,-3.50,1012.32,2011.11,3582.99,3056.00,3517.03,0.00,0.00,0.00,0000 0000 0000 A000 020008
2018-10-10 00:49:02,0.00,0.00,0.00,26.20,30.70,32.61,-0.05,-3.50,1012.52,2011.08,3582.99,3056.00,3517.02,0.00,0.00,0.00,0000 0000 0000 A000 020008
2018-10-10 00:54:03,0.00,0.00,0.00,26.21,30.70,32.60,-0.05,-3.50,1012.54,2011.06,3582.98,3056.00,3517.04,0.00,0.00,0.00,0000 0000 0000 A000 020008
2018-10-10 00:59:04,0.00,0.00,0.00,26.22,30.70,32.64,-0.05,-3.50,1012.61,2011.03,3582.99,3056.00,3517.02,0.00,0.00,0.00,0000 0000 0000 A000 020008
2018-10-10 01:04:06,0.00,0.00,0.00,26.22,30.70,32.65,-0.05,-3.50,1012.50,2011.05,3582.98,3056.00,3517.02,0.00,0.00,0.00,0000 0000 0000 A000 020008
2018-10-10 01:09:07,0.00,0.00,0.00,26.24,30.70,32.68,-0.05,-3.50,1012.45,2011.03,3582.98,3056.00,3517.01,0.00,0.00,0.00,0000 0000 0000 A000 020008
2018-10-10 01:14:09,0.00,0.00,0.00,26.25,30.70,32.68,-0.05,-3.50,1012.47,2011.04,3582.98,3056.00,3517.01,0.00,0.00,0.00,0000 0000 0000 A000 020008
2018-10-10 01:19:10,0.00,0.00,0.00,26.25,30.72,32.65,-0.05,-3.50,1012.40,2011.02,3582.97,3056.00,3517.00,0.00,0.00,0.00,0000 0000 0000 A000 020008
2018-10-10 01:24:11,0.00,0.00,0.00,26.27,30.72,32.63,-0.05,-3.50,1012.45,2011.02,3582.92,3056.00,3517.00,0.00,0.00,0.00,0000 0000 0000 A000 020008
2018-10-10 01:29:12,0.00,0.00,0.00,26.28,30.72,32.71,-0.05,-3.50,1012.49,2011.01,3582.91,3056.00,3517.00,0.00,0.00,0.00,0000 0000 0000 A000 020008
2018-10-10 01:34:13,0.00,0.00,0.00,26.30,30.72,32.68,-0.05,-3.50,1012.59,2011.01,3582.86,3056.00,3517.00,0.00,0.00,0.00,0000 0000 0000 A000 020008
2018-10-10 01:39:14,0.00,0.00,0.00,26.30,30.72,32.70,-0.05,-3.50,1012.63,2011.03,3582.93,3056.00,3517.00,0.00,0.00,0.00,0000 0000 0000 A000 020008
2018-10-10 01:44:16,0.00,0.00,0.00,26.30,30.73,32.73,-0.05,-3.50,1012.57,2011.02,3582.89,3056.00,3517.00,0.00,0.00,0.00,0000 0000 0000 A000 020008
2018-10-10 01:49:17,0.00,0.00,0.00,26.32,30.75,32.73,-0.05,-3.50,1012.49,2011.01,3582.80,3056.00,3517.00,0.00,0.00,0.00,0000 0000 0000 A000 020008
2018-10-10 01:54:17,0.00,0.00,0.00,26.32,30.75,32.73,-0.05,-3.50,1012.30,2011.00,3582.48,3055.98,3517.00,0.00,0.00,0.00,0000 0000 0000 A000 020008
2018-10-10 01:59:19,0.00,0.00,0.00,26.32,30.75,32.79,-0.05,-3.50,1012.28,2011.00,3582.37,3055.98,3516.99,0.00,0.00,0.00,0000 0000 0000 A000 020008
2018-10-10 02:04:20,0.00,0.00,0.00,26.34,30.75,32.75,-0.05,-3.51,1012.28,2011.00,3582.26,3055.96,3516.97,0.00,0.00,0.00,0000 0000 0000 A000 020008
2018-10-10 02:09:21,0.00,0.00,0.00,26.35,30.77,32.80,-0.05,-3.51,1012.24,2011.00,3582.18,3055.92,3516.95,0.00,0.00,0.00,0000 0000 0000 A000 020008
2018-10-10 02:14:22,0.00,0.00,0.00,26.37,30.77,32.76,-0.05,-3.51,1012.31,2011.00,3582.06,3055.89,3516.93,0.00,0.00,0.00,0000 0000 0000 A000 020008
2018-10-10 02:19:24,0.00,0.00,0.00,26.37,30.77,32.76,-0.05,-3.50,1012.28,2011.00,3582.03,3055.78,3516.87,0.00,0.00,0.00,0000 0000 0000 A000 020008
2018-10-10 02:24:25,0.00,0.00,0.00,26.40,30.78,32.78,-0.05,-3.51,1012.28,2011.00,3582.02,3055.55,3516.70,0.00,0.00,0.00,0000 0000 0000 A000 020008
2018-10-10 02:29:26,0.00,0.00,0.00,26.42,30.80,32.76,-0.05,-3.53,1012.27,2011.00,3582.01,3055.42,3516.60,0.00,0.00,0.00,0000 0000 0000 A000 020008
2018-10-10 02:34:27,0.00,0.00,0.00,26.42,30.80,32.83,-0.05,-3.55,1012.24,2011.00,3582.00,3055.27,3516.36,0.00,0.00,0.00,0000 0000 0000 A000 020008
2018-10-10 02:39:28,0.00,0.00,0.00,26.42,30.80,32.83,-0.05,-3.52,1012.23,2010.99,3582.00,3055.10,3516.08,0.00,0.00,0.00,0000 0000 0000 A000 020008
2018-10-10 02:44:29,0.00,0.00,0.00,26.43,30.82,32.85,-0.05,-3.57,1012.24,2010.99,3582.00,3055.06,3516.05,0.00,0.00,0.00,0000 0000 0000 A000 020008
2018-10-10 02:49:31,0.00,0.00,0.00,26.45,30.82,32.80,-0.05,-3.57,1012.23,2010.97,3582.00,3055.04,3516.03,0.00,0.00,0.00,0000 0000 0000 A000 020008
2018-10-10 02:54:32,0.00,0.00,0.00,26.45,30.83,32.83,-0.05,-3.60,1012.22,2010.97,3582.00,3055.02,3516.02,0.00,0.00,0.00,0000 0000 0000 A000 020008
2018-10-10 02:59:33,0.00,0.00,0.00,26.45,30.85,32.82,-0.05,-3.59,1012.22,2010.92,3581.99,3055.00,3516.00,0.00,0.00,0.00,0000 0000 0000 A000 020008
2018-10-10 03:04:34,0.00,0.00,0.00,26.46,30.85,32.82,-0.05,-3.65,1012.22,2010.95,3581.94,3055.00,3516.00,0.00,0.00,0.00,0000 0000 0000 A000 020008
2018-10-10 03:09:35,0.00,0.00,0.00,26.47,30.86,32.87,-0.05,-3.62,1012.22,2010.89,3581.91,3055.00,3516.00,0.00,0.00,0.00,0000 0000 0000 A000 020008
2018-10-10 03:14:37,0.00,0.00,0.00,26.47,30.87,32.88,-0.05,-3.63,1012.22,2010.70,3581.76,3054.99,3516.00,0.00,0.00,0.00,0000 0000 0000 A000 020008
2018-10-10 03:19:38,0.00,0.00,0.00,26.49,30.87,32.88,-0.05,-3.67,1012.22,2010.62,3581.55,3054.98,3515.98,0.00,0.00,0.00,0000 0000 0000 A000 020008
2018-10-10 03:24:39,0.00,0.00,0.00,26.50,30.89,32.89,-0.05,-3.72,1012.22,2010.49,3581.35,3054.98,3515.97,0.00,0.00,0.00,0000 0000 0000 A000 020008
2018-10-10 03:29:41,0.00,0.00,0.00,26.52,30.90,32.88,-0.05,-3.72,1012.22,2010.26,3581.10,3054.91,3515.86,0.00,0.00,0.00,0000 0000 0000 A000 020008
2018-10-10 03:34:42,0.00,0.00,0.00,26.52,30.90,32.91,-0.05,-3.69,1012.22,2010.28,3581.10,3054.90,3515.89,0.00,0.00,0.00,0000 0000 0000 A000 020008
2018-10-10 03:39:43,0.00,0.00,0.00,26.52,30.91,32.96,-0.05,-3.73,1012.22,2010.18,3581.09,3054.80,3515.78,0.00,0.00,0.00,0000 0000 0000 A000 020008
2018-10-10 03:44:45,0.00,0.00,0.00,26.55,30.92,32.94,-0.05,-3.69,1012.22,2010.10,3581.06,3054.74,3515.62,0.00,0.00,0.00,0000 0000 0000 A000 020008
2018-10-10 03:49:46,0.00,0.00,0.00,26.55,30.92,32.93,-0.05,-3.73,1012.23,2010.05,3581.01,3054.27,3515.16,0.00,0.00,0.00,0000 0000 0000 A000 020008
2018-10-10 03:54:47,0.00,0.00,0.00,26.57,30.95,32.94,-0.05,-3.73,1012.23,2010.05,3581.01,3054.25,3515.13,0.00,0.00,0.00,0000 0000 0000 A000 020008
2018-10-10 03:59:48,0.00,0.00,0.00,26.57,30.95,32.99,-0.05,-3.73,1012.23,2010.04,3581.00,3054.12,3515.06,0.00,0.00,0.00,0000 0000 0000 A000 020008
2018-10-10 04:04:50,0.00,0.00,0.00,26.59,30.95,33.00,-0.05,-3.69,1012.23,2010.01,3581.00,3054.04,3515.02,0.00,0.00,0.00,0000 0000 0000 A000 020008
2018-10-10 04:09:51,0.00,0.00,0.00,26.60,30.97,33.00,-0.05,-3.64,1012.24,2010.00,3581.00,3054.01,3515.01,0.00,0.00,0.00,0000 0000 0000 A000 020008
2018-10-10 04:14:52,0.00,0.00,0.00,26.62,30.97,33.01,-0.05,-3.67,1012.25,2010.00,3580.99,3054.01,3515.00,0.00,0.00,0.00,0000 0000 0000 A000 020008
2018-10-10 04:19:53,0.00,0.00,0.00,26.62,30.99,32.99,-0.05,-3.73,1012.26,2010.00,3580.98,3054.00,3515.00,0.00,0.00,0.00,0000 0000 0000 A000 020008
2018-10-10 04:24:55,0.00,0.00,0.00,26.62,31.00,33.04,-0.05,-3.74,1012.25,2010.00,3580.95,3054.00,3515.00,0.00,0.00,0.00,0000 0000 0000 A000 020008
2018-10-10 04:29:56,0.00,0.00,0.00,26.63,31.00,33.03,-0.05,-3.72,1012.25,2010.00,3580.89,3054.00,3514.98,0.00,0.00,0.00,0000 0000 0000 A000 020008
2018-10-10 04:34:57,0.00,0.00,0.00,26.64,31.02,33.01,-0.05,-3.73,1012.25,2010.00,3580.81,3054.00,3514.97,0.00,0.00,0.00,0000 0000 0000 A000 020008
2018-10-10 04:39:58,0.00,0.00,0.00,26.65,31.02,33.03,-0.05,-3.74,1012.25,2010.00,3580.71,3053.99,3514.95,0.00,0.00,0.00,0000 0000 0000 A000 020008
2018-10-10 04:44:59,0.00,0.00,0.00,26.65,31.04,33.04,-0.05,-3.75,1012.29,2009.99,3580.26,3053.98,3514.79,0.00,0.00,0.00,0000 0000 0000 A000 020008
2018-10-10 04:50:00,0.00,0.00,0.00,26.66,31.05,33.05,-0.05,-3.75,1012.28,2009.98,3580.09,3053.94,3514.40,0.00,0.00,0.00,0000 0000 0000 A000 020008
2018-10-10 04:55:01,0.00,0.00,0.00,26.67,31.05,33.07,-0.05,-3.75,1012.35,2009.99,3580.07,3053.91,3514.32,0.00,0.00,0.00,0000 0000 0000 A000 020008
2018-10-10 05:00:02,0.00,0.00,0.00,26.68,31.07,33.07,-0.05,-3.74,1012.46,2009.97,3580.02,3053.81,3514.10,0.00,0.00,0.00,0000 0000 0000 A000 020008
2018-10-10 05:05:04,0.00,0.00,0.00,26.70,31.07,33.08,-0.05,-3.75,1012.61,2009.97,3580.00,3053.52,3514.03,0.00,0.00,0.00,0000 0000 0000 A000 020008
2018-10-10 05:10:05,0.00,0.00,0.00,26.70,31.08,33.13,-0.05,-3.75,1012.58,2009.89,3580.00,3053.13,3514.00,0.00,0.00,0.00,0000 0000 0000 A000 020008
2018-10-10 05:15:06,0.00,0.00,0.00,26.72,31.10,33.16,-0.05,-3.75,1012.56,2009.82,3580.00,3053.03,3514.00,0.00,0.00,0.00,0000 0000 0000 A000 020008
2018-10-10 05:20:07,0.00,0.00,0.00,26.72,31.10,33.12,-0.05,-3.75,1012.68,2009.80,3580.00,3053.04,3514.00,0.00,0.00,0.00,0000 0000 0000 A000 020008
2018-10-10 05:25:08,0.00,0.00,0.00,26.72,31.11,33.10,-0.05,-3.75,1012.71,2009.65,3580.00,3053.02,3514.00,0.00,0.00,0.00,0000 0000 0000 A000 020008
2018-10-10 05:30:09,0.00,0.00,0.00,26.73,31.12,33.10,-0.05,-3.75,1012.71,2009.43,3579.97,3053.01,3513.99,0.00,0.00,0.00,0000 0000 0000 A000 020008
2018-10-10 05:35:11,0.00,0.00,0.00,26.75,31.12,33.10,-0.05,-3.75,1012.71,2009.37,3579.97,3053.00,3513.97,0.00,0.00,0.00,0000 0000 0000 A000 020008
2018-10-10 05:40:12,0.00,0.00,0.00,26.75,31.14,33.13,-0.05,-3.75,1012.71,2009.25,3579.96,3053.00,3513.98,0.00,0.00,0.00,0000 0000 0000 A000 020008
2018-10-10 05:45:13,0.00,0.00,0.00,26.75,31.15,33.12,-0.05,-3.75,1012.71,2009.27,3579.94,3053.00,3513.97,0.00,0.00,0.00,0000 0000 0000 A000 020008
2018-10-10 05:50:15,0.00,0.00,0.00,26.76,31.15,33.09,-0.05,-3.75,1012.71,2009.15,3579.93,3053.00,3513.96,0.00,0.00,0.00,0000 0000 0000 A000 020008
2018-10-10 05:55:16,0.00,0.00,0.00,26.77,31.16,33.14,-0.05,-3.75,1012.71,2009.15,3579.90,3053.00,3513.91,0.00,0.00,0.00,0000 0000 0000 A000 020008
2018-10-10 06:00:17,0.00,0.00,0.00,26.77,31.17,33.15,-0.05,-3.75,1012.71,2009.05,3579.39,3052.98,3513.49,0.00,0.00,0.00,0000 0000 0000 A000 020008
2018-10-10 06:05:18,0.00,0.00,0.00,26.78,31.17,33.14,-0.05,-3.75,1012.71,2009.02,3579.25,3052.98,3513.39,0.00,0.00,0.00,0000 0000 0000 A000 020008
2018-10-10 06:10:19,0.00,0.00,0.00,26.80,31.20,33.18,-0.05,-3.75,1012.71,2009.02,3579.18,3052.96,3513.22,0.00,0.00,0.00,0000 0000 0000 A000 020008
2018-10-10 06:15:21,0.00,0.00,0.00,26.80,31.20,33.22,-0.05,-3.75,1012.71,2009.02,3579.04,3052.92,3513.04,0.00,0.00,0.00,0000 0000 0000 A000 020008
2018-10-10 06:20:22,0.00,0.00,0.00,26.81,31.20,33.20,-0.05,-3.75,1012.70,2009.01,3579.02,3052.85,3513.01,0.00,0.00,0.00,0000 0000 0000 A000 020008
2018-10-10 06:25:23,0.00,0.00,0.00,26.82,31.22,33.20,-0.05,-3.75,1012.70,2009.00,3579.00,3052.70,3513.00,0.00,0.00,0.00,0000 0000 0000 A000 020008
2018-10-10 06:30:25,0.00,0.00,0.00,26.82,31.22,33.21,-0.05,-3.75,1012.71,2009.00,3579.01,3052.67,3513.00,0.00,0.00,0.00,0000 0000 0000 A000 020008
2018-10-10 06:35:26,0.00,0.00,0.00,26.84,31.22,33.24,-0.05,-3.75,1012.71,2009.00,3579.00,3052.18,3513.00,0.00,0.00,0.00,0000 0000 0000 A000 020008
2018-10-10 06:40:27,0.00,0.00,0.00,26.85,31.24,33.19,-0.05,-3.75,1012.70,2009.00,3578.99,3052.05,3513.00,0.00,0.00,0.00,0000 0000 0000 A000 020008
2018-10-10 06:45:28,0.00,0.00,0.00,26.85,31.25,33.24,-0.05,-3.75,1012.69,2009.00,3578.99,3052.05,3512.98,0.00,0.00,0.00,0000 0000 0000 A000 020008
2018-10-10 06:50:30,0.00,0.00,0.00,26.87,31.25,33.26,-0.05,-3.75,1012.71,2009.00,3578.99,3052.04,3512.99,0.00,0.00,0.00,0000 0000 0000 A000 020008
2018-10-10 06:55:31,0.00,0.00,0.00,26.87,31.27,33.29,-0.05,-3.75,1012.71,2009.00,3578.97,3052.01,3512.95,0.00,0.00,0.00,0000 0000 0000 A000 020008
2018-10-10 07:00:32,0.00,0.00,0.00,26.87,31.27,33.29,-0.05,-3.75,1012.71,2008.99,3578.95,3052.00,3512.92,0.00,0.00,0.00,0000 0000 0000 A000 020008
2018-10-10 07:05:33,0.00,0.00,0.00,26.88,31.27,33.32,-0.05,-3.75,1012.71,2008.99,3578.87,3052.00,3512.84,0.00,0.00,0.00,0000 0000 0000 A000 020008
2018-10-10 07:10:34,0.00,0.00,0.00,26.89,31.29,33.29,-0.05,-3.75,1012.71,2008.96,3578.68,3052.00,3512.56,0.00,0.00,0.00,0000 0000 0000 A000 020008
2018-10-10 07:15:35,0.00,0.00,0.00,26.90,31.30,33.33,-0.05,-3.75,1012.71,2008.97,3578.33,3051.99,3512.20,0.00,0.00,0.00,0000 0000 0000 A000 020008
2018-10-10 07:20:37,0.00,0.00,0.00,26.90,31.30,33.34,-0.05,-3.75,1012.71,2008.94,3578.35,3051.99,3512.19,0.00,0.00,0.00,0000 0000 0000 A000 020008
2018-10-10 07:25:38,0.00,0.00,0.00,26.90,31.31,33.35,-0.05,-3.77,1012.71,2008.93,3578.15,3051.99,3512.07,0.00,0.00,0.00,0000 0000 0000 A000 020008
2018-10-10 07:30:39,0.00,0.00,0.00,26.92,31.32,33.32,-0.05,-3.76,1012.71,2008.86,3578.05,3051.97,3512.01,0.00,0.00,0.00,0000 0000 0000 A000 020008
2018-10-10 07:35:40,0.00,0.00,0.00,26.92,31.32,33.28,-0.05,-3.77,1012.71,2008.88,3578.05,3051.98,3512.02,0.00,0.00,0.00,0000 0000 0000 A000 020008
2018-10-10 07:40:41,0.00,0.00,0.00,26.92,31.33,33.31,-0.05,-3.77,1012.71,2008.72,3578.03,3051.92,3512.01,0.00,0.00,0.00,0000 0000 0000 A000 020008
2018-10-10 07:45:42,0.00,0.00,0.00,26.92,31.35,33.31,-0.05,-3.78,1012.71,2008.68,3578.02,3051.93,3512.00,0.00,0.00,0.00,0000 0000 0000 A000 020008
2018-10-10 07:50:43,0.00,0.00,0.00,26.92,31.35,33.30,-0.05,-3.77,1012.71,2008.47,3578.00,3051.78,3512.00,0.00,0.00,0.00,0000 0000 0000 A000 020008
2018-10-10 07:55:45,0.00,0.00,0.00,26.93,31.35,33.36,-0.05,-3.77,1012.71,2008.22,3578.00,3051.46,3512.00,0.00,0.00,0.00,0000 0000 0000 A000 020008
2018-10-10 08:00:46,0.00,0.00,0.00,26.95,31.37,33.31,-0.05,-3.77,1012.71,2008.10,3577.99,3051.13,3511.99,0.00,0.00,0.00,0000 0000 0000 A000 020008
2018-10-10 08:05:47,0.00,0.00,0.00,26.95,31.37,33.39,-0.05,-3.77,1012.71,2008.07,3577.99,3051.06,3511.98,0.00,0.00,0.00,0000 0000 0000 A000 020008
2018-10-10 08:10:48,0.00,0.00,0.00,26.95,31.37,33.33,-0.05,-3.83,1012.71,2008.09,3577.99,3051.06,3511.98,0.00,0.00,0.00,0000 0000 0000 A000 020008
2018-10-10 08:15:49,0.00,0.00,0.00,26.95,31.37,33.37,-0.05,-3.85,1012.72,2008.08,3577.99,3051.03,3511.98,0.00,0.00,0.00,0000 0000 0000 A000 020008
2018-10-10 08:20:50,0.00,0.00,0.00,26.95,31.38,33.37,-0.05,-3.83,1012.72,2008.03,3577.98,3051.02,3511.93,0.00,0.00,0.00,0000 0000 0000 A000 020008
2018-10-10 08:25:51,0.00,0.00,0.00,26.95,31.40,33.37,-0.05,-3.78,1012.72,2008.02,3577.96,3051.01,3511.89,0.00,0.00,0.00,0000 0000 0000 A000 020008
2018-10-10 08:30:52,0.00,0.00,0.00,26.95,31.40,33.37,-0.05,-3.82,1012.72,2008.01,3577.91,3051.01,3511.74,0.00,0.00,0.00,0000 0000 0000 A000 020008
2018-10-10 08:35:54,0.00,0.00,0.00,26.95,31.40,33.40,-0.05,-3.77,1012.72,2008.01,3577.81,3051.00,3511.50,0.00,0.00,0.00,0000 0000 0000 A000 020008
2018-10-10 08:40:55,0.00,0.00,0.00,26.95,31.41,33.41,-0.05,-3.77,1012.71,2008.02,3577.89,3051.00,3511.55,0.00,0.00,0.00,0000 0000 0000 A000 020008
2018-10-10 08:45:56,0.00,0.00,0.00,26.95,31.42,33.39,-0.05,-3.82,1012.71,2008.02,3577.87,3051.00,3511.48,0.00,0.00,0.00,0000 0000 0000 A000 020008
2018-10-10 08:50:57,0.00,0.00,0.00,26.95,31.42,33.39,-0.05,-3.87,1012.71,2008.01,3577.76,3051.00,3511.27,0.00,0.00,0.00,0000 0000 0000 A000 020008
2018-10-10 08:55:58,0.00,0.00,0.00,26.95,31.42,33.37,-0.05,-3.86,1012.71,2008.00,3577.73,3051.00,3511.24,0.00,0.00,0.00,0000 0000 0000 A000 020008
2018-10-10 09:00:59,0.00,0.00,0.00,26.95,31.43,33.37,-0.05,-3.87,1012.71,2008.00,3577.60,3051.00,3511.16,0.00,0.00,0.00,0000 0000 0000 A000 020008
2018-10-10 09:06:01,0.00,0.00,0.00,26.95,31.45,33.40,-0.05,-3.92,1012.71,2008.00,3577.45,3050.99,3511.09,0.00,0.00,0.00,0000 0000 0000 A000 020008
2018-10-10 09:11:02,0.00,0.00,0.00,26.95,31.45,33.41,-0.05,-3.97,1012.71,2008.00,3577.33,3050.99,3511.04,0.00,0.00,0.00,0000 0000 0000 A000 020008
2018-10-10 09:16:03,0.00,0.00,0.00,26.95,31.45,33.39,-0.05,-3.93,1012.71,2008.00,3577.27,3050.98,3511.03,0.00,0.00,0.00,0000 0000 0000 A000 020008
2018-10-10 09:21:04,0.00,0.00,0.00,26.95,31.45,33.38,-0.05,-3.96,1012.71,2008.00,3577.09,3050.98,3511.01,0.00,0.00,0.00,0000 0000 0000 A000 020008
2018-10-10 09:26:05,0.00,0.00,0.00,26.95,31.47,33.37,-0.05,-3.95,1012.71,2008.00,3577.04,3050.96,3511.00,0.00,0.00,0.00,0000 0000 0000 A000 020008
2018-10-10 09:31:07,0.00,0.00,0.00,26.95,31.47,33.44,-0.05,-3.96,1012.71,2008.00,3577.01,3050.95,3511.00,0.00,0.00,0.00,0000 0000 0000 A000 020008
2018-10-10 09:36:08,0.00,0.00,0.00,26.95,31.47,33.38,-0.05,-3.95,1012.72,2008.00,3577.00,3050.78,3511.00,0.00,0.00,0.00,0000 0000 0000 A000 020008
2018-10-10 09:41:09,0.00,0.00,0.00,26.95,31.47,33.39,-0.05,-3.96,1012.72,2008.00,3577.00,3050.79,3510.99,0.00,0.00,0.00,0000 0000 0000 A000 020008
2018-10-10 09:46:09,0.00,0.00,0.00,26.95,31.47,33.46,-0.05,-3.98,1012.71,2008.00,3577.00,3050.90,3510.99,0.00,0.00,0.00,0000 0000 0000 A000 020008
2018-10-10 09:51:11,0.00,0.00,0.00,26.95,31.47,33.47,-0.05,-3.98,1012.72,2008.00,3577.00,3050.84,3510.99,0.00,0.00,0.00,0000 0000 0000 A000 020008
2018-10-10 09:56:12,0.00,0.00,0.00,26.95,31.48,33.46,-0.05,-3.96,1012.72,2007.98,3577.00,3050.64,3510.99,0.00,0.00,0.00,0000 0000 0000 A000 020008
2018-10-10 10:01:13,0.00,0.00,0.00,26.95,31.49,33.44,-0.05,-4.00,1012.73,2007.99,3577.00,3050.68,3510.98,0.00,0.00,0.00,0000 0000 0000 A000 020008
2018-10-10 10:06:14,0.00,0.00,0.00,26.95,31.50,33.41,-0.05,-3.98,1012.72,2007.99,3577.00,3050.83,3510.99,0.00,0.00,0.00,0000 0000 0000 A000 020008
2018-10-10 10:11:16,0.00,0.00,0.00,26.95,31.50,33.42,-0.05,-3.98,1012.73,2007.99,3577.00,3050.73,3510.99,0.00,0.00,0.00,0000 0000 0000 A000 020008
2018-10-10 10:16:17,0.00,0.00,0.00,26.95,31.50,33.42,-0.05,-3.98,1012.74,2007.99,3577.00,3050.49,3510.99,0.00,0.00,0.00,0000 0000 0000 A000 020008
2018-10-10 10:21:18,0.00,0.00,0.00,26.95,31.50,33.43,-0.05,-3.98,1012.74,2007.98,3577.00,3050.38,3510.96,0.00,0.00,0.00,0000 0000 0000 A000 020008
2018-10-10 10:26:19,0.00,0.00,0.00,26.95,31.50,33.42,-0.05,-3.95,1012.75,2007.98,3576.99,3050.12,3510.90,0.00,0.00,0.00,0000 0000 0000 A000 020008
2018-10-10 10:31:20,0.00,0.00,0.00,26.95,31.50,33.42,-0.05,-3.98,1012.73,2007.98,3576.99,3050.22,3510.93,0.00,0.00,0.00,0000 0000 0000 A000 020008
2018-10-10 10:36:22,0.00,0.00,0.00,26.95,31.50,33.44,-0.05,-3.98,1012.73,2007.97,3576.99,3050.10,3510.80,0.00,0.00,0.00,0000 0000 0000 A000 020008
2018-10-10 10:41:23,0.00,0.00,0.00,26.96,31.50,33.40,-0.05,-3.98,1012.73,2007.97,3576.99,3050.04,3510.78,0.00,0.00,0.00,0000 0000 0000 A000 020008
2018-10-10 10:46:24,0.00,0.00,0.00,26.96,31.51,33.42,-0.05,-4.00,1012.72,2007.95,3576.98,3050.04,3510.62,0.00,0.00,0.00,0000 0000 0000 A000 020008
2018-10-10 10:51:25,0.00,0.00,0.00,26.97,31.52,33.41,-0.05,-3.98,1012.71,2007.96,3576.97,3050.06,3510.61,0.00,0.00,0.00,0000 0000 0000 A000 020008
2018-10-10 10:56:26,0.00,0.00,0.00,26.96,31.52,33.43,-0.05,-3.98,1012.71,2007.96,3576.95,3050.03,3510.44,0.00,0.00,0.00,0000 0000 0000 A000 020008
2018-10-10 11:01:27,0.00,0.00,0.00,26.95,31.52,33.43,-0.05,-4.00,1012.71,2007.94,3576.97,3050.03,3510.40,0.00,0.00,0.00,0000 0000 0000 A000 020008
2018-10-10 11:06:28,0.00,0.00,0.00,26.95,31.52,33.41,-0.05,-4.00,1012.71,2007.94,3576.98,3050.03,3510.63,0.00,0.00,0.00,0000 0000 0000 A000 020008
2018-10-10 11:11:30,0.00,0.00,0.00,26.95,31.52,33.42,-0.05,-3.98,1012.71,2007.97,3576.98,3050.04,3510.66,0.00,0.00,0.00,0000 0000 0000 A000 020008
2018-10-10 11:16:31,0.00,0.00,0.00,26.95,31.52,33.41,-0.05,-3.98,1012.71,2007.94,3576.98,3050.02,3510.53,0.00,0.00,0.00,0000 0000 0000 A000 020008
2018-10-10 11:21:32,0.00,0.00,0.00,26.95,31.52,33.42,-0.05,-3.98,1012.71,2007.93,3576.93,3050.01,3510.28,0.00,0.00,0.00,0000 0000 0000 A000 020008
2018-10-10 11:26:33,0.00,0.00,0.00,26.95,31.52,33.40,-0.05,-3.98,1012.71,2007.90,3576.82,3050.00,3510.11,0.00,0.00,0.00,0000 0000 0000 A000 020008
2018-10-10 11:31:34,0.00,0.00,0.00,26.95,31.52,33.39,-0.05,-4.00,1012.71,2007.94,3576.92,3050.00,3510.13,0.00,0.00,0.00,0000 0000 0000 A000 020008
2018-10-10 11:36:35,0.00,0.00,0.00,26.95,31.53,33.41,-0.05,-4.00,1012.71,2007.84,3576.82,3050.00,3510.09,0.00,0.00,0.00,0000 0000 0000 A000 020008
2018-10-10 11:41:36,0.00,0.00,0.00,26.85,31.53,33.32,-0.05,-3.99,1012.71,2007.83,3576.71,3050.00,3510.05,0.00,0.00,0.00,0000 0000 0000 A000 020008
2018-10-10 11:46:37,0.00,0.00,0.00,26.75,31.52,33.17,-0.05,-3.99,1012.71,2007.82,3576.65,3050.00,3510.08,0.00,0.00,0.00,0000 0000 0000 A000 020008
2018-10-10 11:51:39,0.00,0.00,0.00,26.64,31.52,32.91,-0.05,-3.99,1012.69,2007.94,3576.94,3050.02,3510.49,0.00,0.00,0.00,0000 0000 0000 A000 020008
2018-10-10 11:56:40,0.00,0.00,0.00,26.54,31.50,32.70,-0.05,-3.96,1012.63,2007.98,3576.99,3050.20,3510.87,0.00,0.00,0.00,0000 0000 0000 A000 020008
2018-10-10 12:01:41,0.00,0.00,0.00,26.46,31.47,32.50,-0.05,-3.95,1012.54,2007.99,3576.99,3050.70,3510.98,0.00,0.00,0.00,0000 0000 0000 A000 020008
2018-10-10 12:06:42,0.00,0.00,0.00,26.42,31.43,32.29,-0.05,-3.93,1012.34,2007.99,3577.01,3050.97,3511.00,0.00,0.00,0.00,0000 0000 0000 A000 020008
2018-10-10 12:11:43,0.00,0.00,0.00,26.39,31.38,32.13,-0.05,-3.83,1012.25,2007.99,3577.59,3051.00,3511.51,0.00,0.00,0.00,0000 0000 0000 A000 020008
2018-10-10 12:16:44,0.00,0.00,0.00,26.35,31.33,31.97,-0.05,-3.76,1012.24,2008.19,3577.97,3051.55,3511.98,0.00,0.00,0.00,0000 0000 0000 A000 020008
2018-10-10 12:21:45,0.00,0.00,0.00,26.31,31.28,31.90,-0.06,-3.77,1012.23,2008.74,3578.02,3051.98,3512.03,0.00,0.00,0.00,0000 0000 0000 A000 020008
2018-10-10 12:26:46,0.00,0.00,0.00,26.26,31.21,31.79,-0.07,-3.76,1012.23,2008.96,3578.51,3052.00,3512.57,0.00,0.00,0.00,0000 0000 0000 A000 020008
2018-10-10 12:31:48,0.00,0.00,0.00,26.23,31.15,31.71,-0.07,-3.75,1012.22,2008.99,3578.99,3052.59,3512.99,0.00,0.00,0.00,0000 0000 0000 A000 020008
2018-10-10 12:36:49,0.00,0.00,0.00,26.20,31.08,31.64,-0.08,-3.75,1012.22,2009.01,3579.19,3052.99,3513.40,0.00,0.00,0.00,0000 0000 0000 A000 020008
2018-10-10 12:41:50,0.00,0.00,0.00,26.13,31.02,31.62,-0.07,-3.75,1012.22,2009.40,3579.92,3053.07,3513.97,0.00,0.00,0.00,0000 0000 0000 A000 020008
2018-10-10 12:46:51,0.00,0.00,0.00,26.10,30.96,31.61,-0.07,-3.75,1012.22,2009.89,3579.99,3053.68,3514.12,0.00,0.00,0.00,0000 0000 0000 A000 020008
2018-10-10 12:51:52,0.00,0.00,0.00,26.10,30.90,31.55,-0.08,-3.75,1012.20,2009.99,3580.41,3053.99,3514.88,0.00,0.00,0.00,0000 0000 0000 A000 020008
2018-10-10 12:56:54,0.00,0.00,0.00,26.10,30.84,31.51,-0.08,-3.75,1012.18,2010.00,3580.97,3054.18,3515.00,0.00,0.00,0.00,0000 0000 0000 A000 020008
2018-10-10 13:01:55,0.00,0.00,0.00,26.06,30.79,31.50,-0.08,-3.75,1012.17,2010.07,3581.00,3054.83,3515.42,0.00,0.00,0.00,0000 0000 0000 A000 020008
2018-10-10 13:06:56,0.00,0.00,0.00,26.01,30.74,31.50,-0.08,-3.75,1012.11,2010.71,3581.56,3055.00,3515.98,0.00,0.00,0.00,0000 0000 0000 A000 020008
2018-10-10 13:11:58,0.00,0.00,0.00,26.01,30.69,31.47,-0.09,-3.75,1011.97,2010.98,3581.98,3055.28,3516.12,0.00,0.00,0.00,0000 0000 0000 A000 020008
2018-10-10 13:16:59,0.00,0.00,0.00,26.02,30.64,31.45,-0.10,-3.75,1011.85,2010.99,3582.01,3055.91,3516.78,0.00,0.00,0.00,0000 0000 0000 A000 020008
2018-10-10 13:22:00,0.00,0.00,0.00,26.03,30.60,31.40,-0.09,-3.75,1011.82,2011.00,3582.45,3055.99,3516.99,0.00,0.00,0.00,0000 0000 0000 A000 020008